Showing default

FORMOSAT 3D, 29050

Orbit data source: Space-Track

FORMOSAT 3D, 29050 is a payload satellite owned by NSPO (TW) in LEO that was launched on Sat, 15 Apr 2006 UTC via an MINOTAUR I launch vehicle from the Air Force Western Test Range (AFWTR). Payload-class satellites include a variety of spacecraft equipped with specific instruments for various scientific and technological missions. These include communications satellites like Starlink; space stations such as the ISS; scientific satellites like the Hubble; Earth observation satellites from companies like Planet Labs, Umbra, and HawkEye 360; GPS; miniature CubeSats for education and research; and military/defense satellites.

Loading next visibility...
Identifier
29050, 2006-011D
Orbit
LEO
Country
Flag of TWTW / TWN
Related business
Manufacturer
OSC
Mission
Non-operational Civil Science
Bus & Motor
MICROSTAR, Unknown motor
Mass
62 kg wet, 56 kg dry
Launch date (UTC)
2006-04-15 (20 years ago)
Launch vehicle
MINOTAUR I
Launch site
Air Force Western Test Range (AFWTR)
Object type
Payload
Rocket body
Debris
Shape & HBR
Cyl + 2 Pan, 2.1 m
Radar Cross Section
1.446 m², Medium (>0.1 m² and < 1m²)

Expand to show TLE details & history
Last TLE update: 2 days ago

TLE from 2 days ago
0 FORMOSAT 3D
1 29050U 06011D   26171.45810409  .00000901  00000-0  16783-3 0  9990
2 29050  72.0140 305.2230 0044887 279.0428  80.5650 14.66964634 76859
Epoch: 2026-06-20T10:59Z
TLE epoch observation values (Epoch: 2026-06-20T10:59:40.193Z)
Latitude
-0.00006°
Longitude
-128.36693°
Altitude
668.251 km
Speed
7.526 km/s
True Right ascension
20h 20m 53s
True Declination
0° 00' 00"
Sunlit
Object was in full shadow at epoch
Visualization orbit readout
Latitude
Unknown
Longitude
Unknown
Altitude
Unknown
Speed
Unknown
Apparent Right ascension
Unknown
Apparent Declination
Unknown
Sunlit
N/A
Visualization observer readout
Local Sidereal Time
23:08:34
Azimuth
Unknown
Elevation
Unknown
Doppler factor
Unknown
Orbital elements
Apogee altitude
700.18 km
Perigee altitude
636.919 km
Semi-major axis
7,046.686 km
Eccentricity
0.00449
Inclination
72.014°
RAAN
305.223°
Arg. of periapsis
279.0428°
True anomaly
81.07287°
Mean anomaly
80.565°
Eccentric anomaly
80.81889°
Mean motion
3.66915 °/min
Orbital period
98.12 mins
BSTAR
0.00016783
Loading maneuver chart data...
Computing Atmospheric mass density...
Loading historical data...
Loading historical data...
Loading historical data...
Loading historical data...
Loading historical data...
Loading historical data...
Loading historical data...

Documentation

Showing up to 5 results
|